NOAA 17 DEB

基本信息
目录编号:
48705
目录名称:
NOAA 17 DEB
国际标识:
2002-032AN
轨道中心:
EARTH
物体状态:
在轨
发射日期:
2002-06-24 UTC
轨道信息
数据来源: 国际轨道数据
星历时间: 2026-09-10T23:47:14+0800
半长轴: 7156.764km
偏心率: 0.0011604
轨道倾角: 98.828°
近地点辐角: 69.250°
升交点赤经: 226.176°
平近点角: 290.993°
近地点: 770.322km
远地点: 786.932km
周期: 100.423分钟
每日圈数: 14.339294
详细信息
发射场:
AFWTR
轨道高度:
LEO
数据来源:
AOE Integration Group
参考系:
TEME
时间系统:
UTC
历元类型:
SGP4
2D轨道图
3D轨道图
轨道高度分析图
轨道倾角分析图
轨道综合分析图
查看轨道综合分析图